Change the Weather History Date:

Friday, May 3, 2013

  Actual Average (KSFM) Record (KSFM)
Temperature  
Mean Temperature 49 °F -  
Max Temperature 62 °F 61 °F 91 °F (2001)
Min Temperature 37 °F 38 °F 26 °F (2007)
Degree Days  
Heating Degree Days 16    
Moisture  
Dew Point 38 °F    
Average Humidity 66    
Maximum Humidity 89    
Minimum Humidity 50    
Precipitation  
Precipitation 0.00 in - - ()
Sea Level Pressure  
Sea Level Pressure 30.46 in    
Wind  
Wind Speed 5 mph (NE)    
Max Wind Speed 13 mph    
Max Gust Speed 20 mph    
Visibility 10 miles    
Events      
Averages and records for this station are not official NWS values.
T = Trace of Precipitation, MM = Missing Value Source: NWS Daily Summary

Daily Weather History Graph

Daily Weather History Graph

Search for Another Location

Airport or City:

Trip Planner

Search our weather history database for the weather conditions in past years. The results will help you decide how hot, cold, wet, or windy it might be!

Date:

Astronomy

May. 03, 2013 Rise Set
Actual Time 5:33 AM EDT 7:47 PM EDT
Civil Twilight 5:02 AM EDT 8:19 PM EDT
Nautical Twilight 4:23 AM EDT 8:58 PM EDT
Astronomical Twilight 3:40 AM EDT 9:41 PM EDT
Moon 2:07 AM EDT (5/3) 1:29 PM EDT (5/3)
Length of Visible Light 15h 17m
Length of Day
14h 13m
Last Quarter, 37% of the Moon is Illuminated
May 3
Last Quarter
May 9
New
May 18
First Quarter
May 25
Full
May 31
Last Quarter

Hourly Weather History & Observations

Time (EDT) Temp. Windchill Dew Point Humidity Pressure Visibility Wind Dir Wind Speed Gust Speed Precip Events Conditions
12:51 AM 39.9 °F 37.8 °F 34.0 °F 79% 30.51 in 10.0 mi North 3.5 mph - N/A   Clear
1:51 AM 42.1 °F 39.2 °F 34.0 °F 73% 30.50 in 10.0 mi NNE 4.6 mph - N/A   Clear
2:51 AM 41.0 °F 38.0 °F 35.1 °F 79% 30.49 in 10.0 mi NNE 4.6 mph - N/A   Clear
3:51 AM 39.9 °F 36.7 °F 36.0 °F 86% 30.50 in 10.0 mi NNE 4.6 mph - N/A   Clear
4:51 AM 39.9 °F 36.7 °F 36.0 °F 86% 30.51 in 10.0 mi North 4.6 mph - N/A   Clear
5:51 AM 37.9 °F 34.4 °F 35.1 °F 89% 30.51 in 10.0 mi NNW 4.6 mph - N/A   Clear
6:51 AM 43.0 °F 40.3 °F 37.9 °F 82% 30.53 in 10.0 mi NNW 4.6 mph - N/A   Clear
7:51 AM 48.0 °F - 37.0 °F 66% 30.54 in 10.0 mi North 5.8 mph - N/A   Clear
8:51 AM 52.0 °F - 37.0 °F 57% 30.53 in 10.0 mi NE 9.2 mph - N/A   Clear
9:51 AM 54.0 °F - 36.0 °F 51% 30.52 in 10.0 mi NE 8.1 mph - N/A   Clear
10:51 AM 55.9 °F - 37.9 °F 51% 30.51 in 10.0 mi Calm Calm - N/A   Clear
11:51 AM 57.0 °F - 41.0 °F 55% 30.50 in 10.0 mi ESE 10.4 mph - N/A   Clear
12:51 PM 59.0 °F - 41.0 °F 51% 30.47 in 10.0 mi Variable 6.9 mph - N/A   Clear
1:51 PM 61.0 °F - 42.1 °F 50% 30.45 in 10.0 mi East 8.1 mph - N/A   Clear
2:51 PM 61.0 °F - 43.0 °F 52% 30.44 in 10.0 mi East 12.7 mph 19.6 mph N/A   Clear
3:51 PM 60.1 °F - 43.0 °F 53% 30.43 in 10.0 mi ENE 10.4 mph - N/A   Clear
4:51 PM 59.0 °F - 42.1 °F 53% 30.41 in 10.0 mi East 9.2 mph - N/A   Clear
5:51 PM 59.0 °F - 41.0 °F 51% 30.40 in 10.0 mi SE 4.6 mph - N/A   Clear
6:51 PM 55.9 °F - 39.9 °F 55% 30.40 in 10.0 mi South 5.8 mph - N/A   Clear
7:51 PM 52.0 °F - 39.0 °F 61% 30.40 in 10.0 mi South 3.5 mph - N/A   Clear
8:51 PM 50.0 °F - 39.0 °F 66% 30.40 in 10.0 mi Calm Calm - N/A   Clear
9:51 PM 48.0 °F - 39.0 °F 71% 30.40 in 10.0 mi Calm Calm - N/A   Clear
10:51 PM 45.0 °F - 39.0 °F 80% 30.38 in 10.0 mi Calm Calm - N/A   Clear
11:51 PM 44.1 °F - 37.9 °F 79% 30.38 in 10.0 mi Calm Calm - N/A   Clear